DW1774 Weather Reports


Display with metric or nautical units.
time (UTC)temp
F
wind
direction
speed
MPH
gust
MPH
rain 1hr
in
rain 24hr
in
rain mn
in
humidity
%
barometer
mb
20260903130405 81 164 1.0 6.0 0.00 0.00 0.00 82 1014.1
20260903125405 81 162 2.0 13.0 0.00 0.00 0.00 83 1014.0
20260903124404 82 188 4.0 13.0 0.00 0.00 0.00 88 1013.9
20260903123905 82 161 5.0 13.0 0.00 0.00 0.00 90 1013.7
20260903123403 82 207 1.0 3.0 0.00 0.00 0.00 89 1013.7
20260903122904 83 207 1.0 2.0 0.00 0.00 0.00 89 1013.5
20260903122404 83 207 0.0 0.0 0.00 0.00 0.00 89 1013.5
20260903121904 83 207 0.0 0.0 0.00 0.00 0.00 89 1013.3
20260903121404 83 207 0.0 0.0 0.00 0.00 0.00 89 1013.2
20260903120903 83 207 0.0 0.0 0.00 0.00 0.00 89 1013.1
20260903120404 83 207 0.0 0.0 0.00 0.00 0.00 89 1013.2
20260903115904 83 207 0.0 0.0 0.00 0.00 0.00 89 1013.3
20260903114904 83 207 0.0 1.0 0.00 0.00 0.00 89 1013.2
20260903114404 83 207 0.0 1.0 0.00 0.00 0.00 89 1013.1
20260903113904 83 207 0.0 2.0 0.00 0.00 0.00 89 1013.2
20260903113404 83 207 1.0 2.0 0.00 0.00 0.00 89 1013.2
20260903112904 83 206 0.0 5.0 0.00 0.00 0.00 89 1013.1
20260903112404 83 169 1.0 5.0 0.00 0.00 0.00 88 1013.1
20260903111404 83 167 0.0 3.0 0.00 0.00 0.00 88 1013.0
20260903110904 83 165 0.0 2.0 0.00 0.00 0.00 88 1012.9
20260903110404 83 165 1.0 5.0 0.00 0.00 0.00 88 1012.9
20260903105904 83 163 0.0 5.0 0.00 0.00 0.00 88 1012.9
20260903105404 83 163 1.0 5.0 0.00 0.00 0.00 88 1012.8
20260903104904 83 163 0.0 2.0 0.00 0.00 0.00 88 1012.8
20260903104404 83 163 0.0 2.0 0.00 0.00 0.00 88 1012.8
20260903103904 83 163 1.0 5.0 0.00 0.00 0.00 88 1012.8
20260903103404 83 162 2.0 5.0 0.00 0.00 0.00 88 1012.8
20260903102904 83 161 1.0 5.0 0.00 0.00 0.00 88 1012.8
20260903102404 83 161 0.0 2.0 0.00 0.00 0.00 88 1012.8
20260903101904 83 161 0.0 2.0 0.00 0.00 0.00 88 1012.7
20260903101404 83 161 0.0 2.0 0.00 0.00 0.00 88 1012.7
20260903100904 83 160 1.0 2.0 0.00 0.00 0.00 87 1012.6
20260903100405 83 160 1.0 3.0 0.00 0.00 0.00 87 1012.6
20260903095904 83 157 0.0 3.0 0.00 0.00 0.00 87 1012.6
20260903094903 83 151 2.0 5.0 0.00 0.00 0.00 87 1012.5
20260903094404 83 161 1.0 5.0 0.00 0.00 0.00 87 1012.5
20260903093903 83 163 2.0 5.0 0.00 0.00 0.00 87 1012.6
20260903092904 83 162 2.0 6.0 0.00 0.00 0.00 87 1012.7
20260903092404 83 144 1.0 6.0 0.00 0.00 0.00 87 1012.7
20260903091404 83 163 2.0 6.0 0.00 0.00 0.00 87 1012.8
20260903090404 83 148 3.0 6.0 0.00 0.00 0.00 87 1012.9
20260903085904 83 168 3.0 5.0 0.00 0.00 0.00 87 1012.8
20260903085404 83 172 2.0 3.0 0.00 0.00 0.00 87 1012.8
20260903084404 83 167 1.0 5.0 0.00 0.00 0.00 87 1012.7
20260903083904 83 161 2.0 5.0 0.00 0.00 0.00 87 1012.7
20260903083404 83 178 3.0 5.0 0.00 0.00 0.00 87 1012.7
20260903082903 83 184 2.0 5.0 0.00 0.00 0.00 87 1012.7
20260903082404 83 146 2.0 7.0 0.00 0.00 0.00 87 1012.6
20260903081404 83 162 2.0 7.0 0.00 0.00 0.00 87 1012.6
20260903080403 83 157 0.0 6.0 0.00 0.00 0.00 87 1012.5
20260903075904 83 161 1.0 5.0 0.00 0.00 0.00 87 1012.5
20260903075404 83 160 2.0 5.0 0.00 0.00 0.00 87 1012.4
20260903074904 83 184 2.0 8.0 0.00 0.00 0.00 87 1012.4
20260903073905 83 167 3.0 8.0 0.00 0.00 0.00 87 1012.5
20260903073405 83 168 3.0 6.0 0.00 0.00 0.00 87 1012.4
20260903072903 83 156 2.0 7.0 0.00 0.00 0.00 86 1012.4
20260903072404 83 160 3.0 7.0 0.00 0.00 0.00 87 1012.5
20260903071904 83 154 2.0 7.0 0.00 0.00 0.00 87 1012.6
20260903070905 83 167 1.0 8.0 0.00 0.00 0.00 87 1012.7
20260903070404 83 156 7.0 8.0 0.00 0.00 0.00 87 1012.7
20260903065403 83 182 3.0 8.0 0.00 0.00 0.00 87 1012.8
20260903064903 83 133 1.0 6.0 0.00 0.00 0.00 87 1013.0
20260903063904 83 173 2.0 6.0 0.00 0.00 0.00 86 1012.9
20260903063404 83 159 2.0 6.0 0.00 0.00 0.00 86 1013.0
20260903062904 83 161 2.0 6.0 0.00 0.00 0.00 86 1013.0
20260903062404 83 159 2.0 6.0 0.00 0.00 0.00 86 1013.1
20260903061905 83 155 2.0 3.0 0.00 0.00 0.00 86 1013.2
20260903061404 84 151 1.0 3.0 0.00 0.00 0.00 85 1013.3
20260903060904 84 140 1.0 5.0 0.00 0.00 0.00 85 1013.3
20260903060404 84 165 1.0 5.0 0.00 0.00 0.00 85 1013.5
20260903055905 84 165 1.0 2.0 0.00 0.00 0.00 85 1013.7
20260903055403 84 165 1.0 2.0 0.00 0.00 0.00 84 1013.7
20260903054905 84 165 1.0 5.0 0.00 0.00 0.00 84 1013.6
20260903054405 84 165 2.0 5.0 0.00 0.00 0.00 84 1013.7
20260903053405 84 165 1.0 3.0 0.00 0.00 0.00 84 1013.5
20260903052904 84 158 2.0 3.0 0.00 0.00 0.00 84 1013.5
20260903052404 84 153 0.0 5.0 0.00 0.00 0.00 84 1013.6
20260903051904 84 152 2.0 5.0 0.00 0.00 0.00 84 1013.6
20260903051404 84 128 1.0 3.0 0.00 0.00 0.00 84 1013.6
20260903050405 84 148 2.0 5.0 0.00 0.24 0.00 83 1013.5
20260903045403 84 157 2.0 5.0 0.00 1.23 0.00 83 1013.6
20260903044404 84 145 0.0 3.0 0.00 2.22 0.00 83 1013.9
20260903043904 84 144 1.0 5.0 0.00 2.82 0.00 83 1013.9
20260903043404 85 144 1.0 5.0 0.00 3.36 0.00 83 1014.0
20260903042904 85 137 2.0 5.0 0.00 3.75 0.00 83 1013.9
20260903041404 85 148 2.0 6.0 0.00 5.10 0.00 83 1013.8
20260903040904 85 149 2.0 6.0 0.00 5.52 0.00 83 1013.9
20260903035903 85 140 1.0 5.0 0.00 6.51 0.00 83 1014.0
20260903035404 85 148 2.0 5.0 0.00 6.99 0.00 82 1014.0
20260903034904 85 142 2.0 7.0 0.00 7.53 0.00 82 1014.0
20260903034404 85 138 2.0 7.0 0.00 8.13 0.00 82 1013.9
20260903032904 85 128 2.0 7.0 0.00 9.69 0.00 82 1013.6
20260903031405 85 146 0.0 3.0 0.00 1.11 0.00 82 1013.8
20260903030903 85 145 1.0 7.0 0.00 1.17 0.00 82 1013.7
20260903030403 85 157 2.0 7.0 0.00 1.22 0.00 83 1013.6
20260903025904 85 122 2.0 6.0 0.00 1.27 0.00 83 1013.4
20260903025405 85 148 2.0 8.0 0.00 1.33 0.00 83 1013.2
20260903024904 85 129 5.0 8.0 0.00 1.39 0.00 83 1013.2
20260903024404 85 141 2.0 8.0 0.00 1.45 0.00 83 1013.0
20260903023904 85 157 3.0 8.0 0.00 1.51 0.00 83 1013.0
20260903023405 85 145 3.0 8.0 0.00 1.55 0.00 83 1013.0
20260903021904 85 144 5.0 9.0 0.00 1.71 0.00 83 1012.6
20260903021404 85 127 3.0 7.0 0.00 1.76 0.00 83 1012.7
20260903020404 85 140 3.0 9.0 0.00 1.89 0.00 83 1012.6
20260903015903 86 161 4.0 9.0 0.00 1.93 0.00 83 1012.6
20260903015404 86 150 3.0 8.0 0.00 1.99 0.00 82 1012.6
20260903014904 86 145 3.0 8.0 0.00 2.05 0.00 82 1012.6
20260903013904 86 140 3.0 10.0 0.00 2.14 0.00 82 1012.6
20260903013403 86 155 5.0 10.0 0.00 2.19 0.00 82 1012.5
20260903012904 86 177 6.0 12.0 0.00 2.24 0.00 81 1012.4
20260903011903 86 150 4.0 9.0 0.00 2.33 0.00 80 1012.5
20260903011405 86 169 5.0 9.0 0.00 2.38 0.00 80 1012.4
20260903010904 87 163 3.0 9.0 0.00 2.43 0.00 80 1012.2
20260903010404 87 148 5.0 10.0 0.00 2.49 0.00 79 1012.1
20260903005904 87 159 3.0 10.0 0.00 2.54 0.00 78 1012.1
20260903005404 87 149 3.0 9.0 0.00 2.59 0.00 78 1012.1
20260903004905 87 181 3.0 10.0 0.00 2.64 0.00 77 1012.1
20260903004404 87 158 6.0 12.0 0.00 2.70 0.00 77 1012.3
20260903003904 88 160 3.0 12.0 0.00 2.75 0.00 76 1012.3
20260903003403 88 165 5.0 10.0 0.00 2.79 0.00 76 1012.3
20260903002904 88 169 5.0 10.0 0.00 2.83 0.00 75 1012.2
20260903002405 88 175 6.0 10.0 0.00 2.91 0.00 74 1012.1
20260903001904 89 146 3.0 10.0 0.00 2.96 0.00 73 1011.8
20260903001404 89 166 5.0 10.0 0.00 3.01 0.00 72 1011.5
20260903000405 89 149 3.0 13.0 0.00 3.13 0.00 71 1011.4
20260902235904 90 139 5.0 13.0 0.00 3.17 0.00 70 1011.4
20260902235404 90 161 5.0 12.0 0.00 3.24 0.00 69 1011.5
20260902234904 90 169 6.0 14.0 0.00 3.29 0.00 68 1011.5
20260902234403 90 159 9.0 14.0 0.00 3.36 0.00 67 1011.6
20260902233403 91 150 5.0 10.0 0.00 3.48 0.00 67 1011.7
20260902232904 91 129 5.0 14.0 0.00 3.54 0.00 66 1011.7
20260902232405 92 131 7.0 14.0 0.00 3.60 0.00 65 1011.6
20260902231905 92 134 7.0 15.0 0.00 3.65 0.00 65 1011.6
20260902231404 92 157 5.0 15.0 0.00 3.72 0.00 65 1011.6
20260902230904 93 151 9.0 13.0 0.00 3.77 0.00 64 1011.5
20260902230404 94 164 4.0 13.0 0.00 3.81 0.00 64 1011.5
20260902225903 94 166 7.0 14.0 0.00 3.87 0.00 63 1011.5
20260902225404 94 143 10.0 14.0 0.00 3.90 0.00 62 1011.4
20260902224904 95 142 7.0 17.0 0.00 3.95 0.00 62 1011.4
20260902223904 96 180 7.0 16.0 0.00 4.05 0.00 59 1011.4
20260902223404 96 165 5.0 16.0 0.00 4.11 0.00 59 1011.4
20260902222405 97 200 5.0 20.0 0.00 4.23 0.00 58 1011.5
20260902221905 97 161 6.0 20.0 0.00 4.29 0.00 58 1011.5
20260902221404 97 159 5.0 17.0 0.00 4.35 0.00 59 1011.5
20260902220904 97 167 5.0 15.0 0.00 4.40 0.00 59 1011.5
20260902215904 97 160 8.0 16.0 0.00 4.49 0.00 61 1011.5
20260902214405 95 141 14.0 14.0 0.00 4.65 0.00 63 1011.5
20260902213904 95 152 6.0 13.0 0.00 4.69 0.00 64 1011.5
20260902212904 95 156 7.0 13.0 0.00 4.76 0.00 63 1011.6
20260902212404 95 108 7.0 12.0 0.00 4.81 0.00 62 1011.6
20260902211903 95 158 4.0 14.0 0.00 4.84 0.00 63 1011.7
20260902211404 96 163 6.0 14.0 0.00 4.88 0.00 62 1011.8
20260902210905 96 167 7.0 14.0 0.00 4.92 0.00 61 1011.9
20260902210405 97 128 6.0 14.0 0.00 4.95 0.00 61 1011.8
20260902205404 98 152 6.0 14.0 0.00 5.03 0.00 58 1011.8
20260902204904 98 179 2.0 8.0 0.00 5.05 0.00 54 1011.8
20260902204404 99 149 3.0 12.0 0.00 5.07 0.00 54 1011.9
20260902203904 99 185 3.0 12.0 0.00 5.12 0.00 54 1011.9
20260902203405 100 178 4.0 10.0 0.00 5.16 0.00 54 1012.1
20260902202905 100 117 1.0 13.0 0.00 5.19 0.00 54 1012.1
20260902202404 100 205 5.0 13.0 0.00 5.22 0.00 53 1012.2
20260902201904 100 167 6.0 13.0 0.00 5.26 0.00 53 1012.2
20260902201404 100 196 3.0 13.0 0.00 5.29 0.00 54 1012.3
20260902200904 99 173 5.0 13.0 0.00 5.33 0.00 54 1012.4
20260902195905 99 180 3.0 9.0 0.00 5.41 0.00 55 1012.6
20260902195404 98 156 4.0 8.0 0.00 5.42 0.00 56 1012.7
20260902194904 98 200 4.0 8.0 0.00 5.46 0.00 54 1012.7
20260902194404 98 191 3.0 8.0 0.00 5.50 0.00 57 1012.8
20260902193403 98 197 2.0 7.0 0.00 5.57 0.00 57 1012.8
20260902192904 97 211 1.0 9.0 0.00 5.60 0.00 58 1012.9
20260902192405 97 229 2.0 9.0 0.00 5.62 0.00 58 1012.9
20260902191904 97 193 4.0 7.0 0.00 5.65 0.00 56 1012.9
20260902191405 96 208 3.0 12.0 0.00 5.67 0.00 57 1012.9
20260902190904 96 203 4.0 12.0 0.00 5.69 0.00 57 1013.0
20260902190404 97 327 2.0 7.0 0.00 5.71 0.00 57 1013.0
20260902185904 97 236 2.0 8.0 0.00 5.73 0.00 57 1013.1
20260902185405 97 208 2.0 8.0 0.00 5.75 0.00 56 1013.1
20260902184905 98 201 2.0 9.0 0.00 5.77 0.00 58 1013.2
20260902184405 98 223 5.0 9.0 0.00 5.78 0.00 57 1013.3
20260902183903 98 214 3.0 9.0 0.00 5.81 0.00 57 1013.3
20260902183405 98 186 5.0 9.0 0.00 5.82 0.00 56 1013.4
20260902182904 98 240 1.0 7.0 0.00 5.82 0.00 57 1013.5
20260902182405 98 274 2.0 8.0 0.00 5.82 0.00 57 1013.5
20260902181905 98 184 3.0 8.0 0.00 5.82 0.00 58 1013.6
20260902181404 97 196 3.0 8.0 0.00 5.82 0.00 60 1013.7
20260902180904 97 180 3.0 8.0 0.00 5.82 0.00 63 1013.8
20260902180404 96 211 1.0 8.0 0.00 5.82 0.00 64 1013.9
20260902175403 95 197 2.0 8.0 0.00 5.82 0.00 66 1014.1
20260902174904 94 251 2.0 8.0 0.00 5.82 0.00 66 1014.2
20260902174404 94 223 2.0 6.0 0.00 5.82 0.00 67 1014.3
20260902173404 93 214 3.0 7.0 0.00 5.82 0.00 68 1014.4
20260902172904 93 238 1.0 6.0 0.00 5.82 0.00 70 1014.5
20260902171905 92 223 3.0 5.0 0.00 5.82 0.00 70 1014.6
20260902171404 92 209 2.0 5.0 0.00 5.82 0.00 71 1014.5
20260902170904 92 210 1.0 6.0 0.00 5.82 0.00 71 1014.7
20260902170404 92 239 2.0 10.0 0.00 5.82 0.00 72 1014.7
20260902165905 91 209 3.0 12.0 0.00 5.82 0.00 70 1014.8
20260902165404 91 232 3.0 12.0 0.00 5.82 0.00 71 1014.9
20260902163904 90 277 3.0 8.0 0.00 5.82 0.00 73 1015.1
20260902163404 90 257 4.0 8.0 0.00 5.82 0.00 73 1015.1
20260902162405 90 252 3.0 8.0 0.00 5.82 0.00 75 1015.1
20260902161905 90 192 2.0 8.0 0.00 5.82 0.00 76 1015.1
20260902161404 90 207 5.0 8.0 0.00 5.82 0.00 76 1015.1
20260902160904 89 262 2.0 9.0 0.00 5.82 0.00 77 1015.1
20260902160404 89 225 2.0 10.0 0.00 5.82 0.00 77 1015.1
20260902155404 89 217 2.0 5.0 0.00 5.82 0.00 78 1015.1
20260902154904 89 219 3.0 12.0 0.00 5.82 0.00 80 1015.0
20260902154404 89 240 3.0 12.0 0.00 5.82 0.00 79 1014.9
20260902153903 88 211 2.0 10.0 0.00 5.82 0.00 81 1014.8
20260902153404 87 254 1.0 6.0 0.00 5.82 0.00 83 1014.8
20260902152904 87 233 2.0 6.0 0.00 5.82 0.00 84 1014.9
20260902151905 86 237 3.0 6.0 0.00 5.82 0.00 85 1014.8
20260902151405 85 225 2.0 8.0 0.00 5.82 0.00 86 1014.8
20260902150905 85 187 2.0 8.0 0.00 5.82 0.00 86 1014.8
20260902150404 85 208 1.0 6.0 0.00 5.82 0.00 87 1014.7
20260902145904 84 232 1.0 6.0 0.00 5.82 0.00 87 1014.7
20260902145404 84 215 1.0 5.0 0.00 5.82 0.00 87 1014.7
20260902144904 84 189 2.0 5.0 0.00 5.82 0.00 87 1014.7
20260902142905 82 202 0.0 0.0 0.00 5.82 0.00 87 1014.5
20260902142404 82 202 0.0 0.0 0.00 5.82 0.00 87 1014.5
20260902141903 82 202 0.0 1.0 0.00 5.82 0.00 87 1014.5
20260902141403 82 202 0.0 2.0 0.00 5.82 0.00 87 1014.6
20260902140904 82 201 0.0 3.0 0.00 5.82 0.00 87 1014.5
20260902140404 81 200 2.0 3.0 0.00 5.82 0.00 87 1014.6
20260902135905 81 196 0.0 3.0 0.00 5.82 0.00 87 1014.6
20260902135405 81 194 0.0 0.0 0.00 5.82 0.00 87 1014.6
20260902134903 81 194 0.0 0.0 0.00 5.82 0.00 87 1014.6
20260902134404 81 194 0.0 0.0 0.00 5.82 0.00 87 1014.6
20260902133905 81 194 0.0 3.0 0.00 5.82 0.00 87 1014.6
20260902133403 80 194 0.0 3.0 0.00 5.82 0.00 87 1014.5
20260902132904 80 194 1.0 3.0 0.00 5.82 0.00 87 1014.6
20260902132404 80 192 0.0 0.0 0.00 5.82 0.00 87 1014.6
20260902131905 80 192 0.0 3.0 0.00 5.82 0.00 87 1014.5
20260902131404 80 192 0.0 3.0 0.00 5.82 0.00 87 1014.5
20260902130904 80 190 1.0 3.0 0.00 5.82 0.00 87 1014.3